Regional Weather Roundup
Issued by NWS Charleston, SC

Current Version | Previous Version | Graphics & Text | Print | Product List | Glossary On
Versions: 1 2 3 4 5 6 7 8 9 10 11 12 13 14 15 16 17 18 19 20 21 22 23 24 25 26 27 28 29 30 31 32 33 34 35 36 37 38 39 40 41 42 43 44 45 46 47 48 49 50
000
ASUS42 KCHS 271511
RWRCHS

REGIONAL WEATHER ROUNDUP
NATIONAL WEATHER SERVICE CHARLESTON SC
1100 AM EDT FRI MAR 27 2015

NOTE: "FAIR" INDICATES FEW OR NO CLOUDS BELOW 12,000 FEET WITH NO
SIGNIFICANT WEATHER AND/OR OBSTRUCTIONS TO VISIBILITY.

NOT ALL STATIONS ARE QUALITY CONTROLLED BY THE NATIONAL
WEATHER SERVICE. USE DATA WITH CAUTION...ESPECIALLY
DEWPOINT OBSERVATIONS.

SCZ027-030-031-034>040-042>050-271600-
...SOUTHEAST SOUTH CAROLINA...

CITY           SKY/WX    TMP DP  RH WIND       PRES   REMARKS
N CHARLESTON   PTSUNNY   69  61  75 SW16      29.72F
WATERFRONT PRK   N/A     68 N/A N/A SW12G18     N/A
MOUNT PLEASANT PTSUNNY   70  63  78 S12G21    29.72F
PINOPOLIS        N/A     70  63  78 SW9       29.64R
MONCKS CORNER  CLOUDY    70  61  73 SW9       29.71R
SUMMERVILLE    CLOUDY    68  61  77 SW6       29.73R
BEAUFORT MCAS  PTSUNNY   69  60  73 SW18G25   29.74S
BEAUFORT ARPT  CLOUDY    70  63  78 SW16      29.73F HAZE
HILTON HEAD IS PTSUNNY   70  63  78 SW9G20    29.75F
WALTERBORO     CLOUDY    66  61  82 SW9       29.73R
ALLENDALE      CLOUDY    68  61  77 SW7       29.71R

...SOUTHERN MIDLANDS AND PEE DEE...

CITY           SKY/WX    TMP DP  RH WIND       PRES   REMARKS
GEORGETOWN     NOT AVBL
KINGSTREE      NOT AVBL
ORANGEBURG     CLOUDY    70  60  70 SW14      29.69S
BARNWELL       CLOUDY    70  63  78 SW8       29.70S
AIKEN          CLOUDY    64  57  77 SW7       29.72F
MANNING        CLOUDY    64  59  82 SW12      29.69F
COLUMBIA       CLOUDY    65  63  93 N9        29.68S
SUMTER         LGT RAIN  64  61  88 W8        29.67R FOG
FLORENCE       CLOUDY    68  59  73 W12       29.68R
MYRTLE BEACH   PTSUNNY   72  63  73 SW9       29.70F
N MYRTLE BEACH PTSUNNY   66  61  84 S9        29.67F

$$

GAZ063-065-086>088-099>101-113>116-118-119-134>141-150-271600-
...SOUTHEAST GEORGIA...

CITY           SKY/WX    TMP DP  RH WIND       PRES   REMARKS
SAVANNAH ARPT  PTSUNNY   69  60  73 SW14G20   29.75S
HUNTER AAF     PTSUNNY   71  64  78 SW12G18   29.73F
FORT STEWART   CLOUDY    68  61  77 SW8       29.75R
STATESBORO     PTSUNNY   69  67  92 SW10G17   29.73F
SYLVANIA       CLOUDY    68  63  84 W8        29.73F
CLAXTON        CLOUDY    68  63  83 SW9       29.74F

...CSRA...CENTRAL AND FAR SOUTHEAST GEORGIA...

CITY           SKY/WX    TMP DP  RH WIND       PRES   REMARKS
THOMSON        CLOUDY    60  58  91 W15       29.78R
AUGUSTA-BUSH   PTSUNNY   70  56  61 W14       29.69S
AUGUSTA-DANIEL PTSUNNY   68  56  65 W8        29.70S
SWAINSBORO     CLOUDY    68  52  56 W7        29.74R
VIDALIA        CLOUDY    68  63  83 SW8       29.74S
EASTMAN        CLOUDY    64  58  82 W9G17     29.81R
HAZLEHURST     CLOUDY    68  64  88 SW6       29.76R
ALMA           CLOUDY    67  62  84 SW6       29.78R
WAYCROSS       CLOUDY    70  68  93 SW9       29.78S
JESUP          CLOUDY    70  66  88 SW7       29.79R FOG
BAXLEY         CLOUDY    68  63  83 SW3       29.77R
BRUNSWICK      PTSUNNY   72  63  73 SW14G20   29.79F
SAINT SIMONS   PTSUNNY   71  63  75 SW12      29.78F

$$

SCZ027-028-034-036>038-045-046-048>050-GAZ119-141-271600-
...LAKE AND SUPPLEMENTAL COASTAL OBSERVATIONS...

STATION/POSITION TIME  TEMP    WIND        PRES    WAVE   SWELL
                       AIR SEA DIR/SP/G            HT/PER HT/PER/DIR
                 (UTC) (F)     (DEG/KT/KT) (MB)    (FT/S) (FT/S/D)
UPR LAKE MARION  NOT AVBL
WINYAH BAY       1345   67     240/ 10     1005.0
LAKE MURRAY      1400   60     330/  5/ 10 1005.4R
ACE BASIN NERRS  NOT AVBL
FORT PULASKI     1400   67 62  230/  9/ 15 1008.3F
SAPELO ISLAND    1400   67     240/ 14     1008.0F

$$

ANZ835-935-AMZ111-154-330-350-352-354-370-450-454-472-271600-
...C-MAN AND BUOY OBSERVATIONS...

STATION/POSITION TIME  TEMP    WIND        PRES    WAVE   SWELL
                       AIR SEA DIR/SP/G            HT/PER HT/PER/DIR
                 (UTC) (F)     (DEG/KT/KT) (MB)    (FT/S) (FT/S/D)
BUOY 41004       1450   66 70  230/ 21/ 25 1006.6F   6/ 7   2/13
BUOY 41008       1450   62 60  200/ 10/ 12 1008.4F   3/ 8   2/ 90/ 8
FOLLY BEACH CMAN 1500   62     220/ 14/ 16 1007.0R
CAPERS NEARSHORE 1400   62     230/ 10/ 12   N/A
FRIPP NEARSHORE  1400   62     220/ 10/ 14 1007.8R


STATION/POSITION TIME  TEMP    WIND        PRES    WAVE   SWELL
                       AIR SEA DIR/SP/G            HT/PER HT/PER/DIR
                 (UTC) (F)     (DEG/KT/KT) (MB)    (FT/S) (FT/S/D)
5E ST. MARYS GA  1421      63                N/A     2/ 8
FRYING PAN BUOY  1450   67 65  240/ 21/ 23 1005.6F   6/ 8   3/100/ 8
BUOY 41025       NOT AVBL
CAPE LOOKOUT NC  1500   63     230/  7/  9 1004.4S
BUOY 41002       1450   72 69  210/ 23/ 29 1008.2F   9/ 8
BUOY 41010       1420   77 76  230/ 14/ 17 1011.7R
ST AUGUSTINE FL  1500   71 63  250/  6/ 10 1010.8F


$$


USA.gov is the U.S. government's official web portal to all federal, state and local government web resources and services.